Location: Ipswich
(52.0579°N, 1.1528°E)
Time: 10:47:13
(UTC+01:00)

ISS - Pass Details

Date: 02 May 2026
Orbit: 414 x 424 km, 51.6° (Epoch: 8 May)

Event Time Altitude Azimuth Distance (km) Brightness Sun altitude
Exits shadow 04:35:59 - 279° (W) 2,181 -0.5 -7.1°
Reaches altitude 10° 04:37:39 10° 277° (W) 1,501 -1.4 -6.9°
Maximum altitude 04:40:59 64° 195° (SSW) 468 -3.7 -6.5°
Drops below altitude 10° 04:44:20 10° 113° (ESE) 1,503 -0.5 -6.1°
Sets 04:46:27 0° 111° (ESE) 2,368 0.6 -5.8°
